UAL597 KPHX-KDEN

Flight info

Callsign UAL597
Flight time 0h 37m
Altitude 37000
Route MRBIL1 JARPA CRUDD TBARR4
Aircraft B738/M-SDE2E3FGHIRWXY/LB1

Departure

Time 2026-05-05 22:20
Airport Phoenix Sky Harbor International Airport (KPHX)

Arrival

Time 2026-05-05 22:58
Airport Denver International Airport (KDEN)
Time Latitude Longitude Altitude Speed Heading
2026-05-05 22:05 33.43704 -112.00810 1117 ft 0 kts 269°
2026-05-05 22:12 33.43703 -112.00792 1115 ft 3 kts 277°
2026-05-05 22:12 33.43699 -112.00768 1121 ft 3 kts 281°
2026-05-05 22:13 33.43694 -112.00746 1119 ft 2 kts 346°
2026-05-05 22:13 33.43690 -112.00745 1114 ft 0 kts
2026-05-05 22:16 33.43692 -112.00745 1114 ft 2 kts
2026-05-05 22:16 33.43700 -112.00743 1118 ft 2 kts 10°
2026-05-05 22:16 33.43768 -112.00735 1118 ft 14 kts
2026-05-05 22:16 33.43866 -112.00731 1121 ft 14 kts 15°
2026-05-05 22:17 33.43900 -112.00630 1124 ft 16 kts 89°
2026-05-05 22:17 33.43889 -112.00493 1121 ft 17 kts 124°
2026-05-05 22:17 33.43779 -112.00468 1116 ft 16 kts 181°
2026-05-05 22:17 33.43658 -112.00468 1120 ft 19 kts 179°
2026-05-05 22:18 33.43510 -112.00468 1118 ft 23 kts 180°
2026-05-05 22:18 33.43353 -112.00468 1120 ft 22 kts 180°
2026-05-05 22:18 33.43213 -112.00428 1122 ft 22 kts 117°
2026-05-05 22:18 33.43213 -112.00252 1122 ft 21 kts 89°
2026-05-05 22:19 33.43213 -112.00060 1120 ft 26 kts 89°
2026-05-05 22:19 33.43213 -111.99825 1126 ft 29 kts 90°
2026-05-05 22:19 33.43211 -111.99589 1124 ft 23 kts 94°
2026-05-05 22:19 33.43109 -111.99544 1133 ft 18 kts 247°
2026-05-05 22:20 33.43102 -111.99661 1131 ft 28 kts 271°
2026-05-05 22:20 33.43101 -112.00187 1131 ft 96 kts 270°
2026-05-05 22:20 33.43100 -112.01233 1149 ft 151 kts 268°
2026-05-05 22:20 33.43071 -112.02500 1834 ft 148 kts 267°
2026-05-05 22:21 33.43081 -112.03758 2458 ft 158 kts 269°
2026-05-05 22:21 33.43126 -112.05094 3020 ft 169 kts 269°
2026-05-05 22:21 33.43181 -112.06607 3282 ft 194 kts 270°
2026-05-05 22:21 33.43223 -112.08332 3435 ft 220 kts 270°
2026-05-05 22:22 33.43270 -112.10219 3846 ft 231 kts 270°
2026-05-05 22:22 33.43323 -112.12136 4700 ft 229 kts 270°
2026-05-05 22:22 33.43377 -112.14073 5326 ft 238 kts 270°
2026-05-05 22:22 33.43444 -112.16059 6126 ft 237 kts 274°
2026-05-05 22:23 33.43927 -112.17775 6810 ft 244 kts 301°
2026-05-05 22:23 33.45197 -112.19165 7474 ft 256 kts 329°
2026-05-05 22:23 33.46948 -112.19737 8075 ft 269 kts 354°
2026-05-05 22:23 33.48724 -112.19736 8764 ft 273 kts 358°
2026-05-05 22:24 33.50629 -112.19681 9533 ft 275 kts 358°
2026-05-05 22:24 33.52554 -112.19628 10214 ft 279 kts 359°
2026-05-05 22:24 33.54453 -112.19318 10667 ft 294 kts 11°
2026-05-05 22:24 33.56499 -112.18681 10878 ft 318 kts 13°
2026-05-05 22:25 33.58720 -112.17973 11055 ft 342 kts 13°
2026-05-05 22:25 33.61066 -112.17109 11246 ft 366 kts 24°
2026-05-05 22:25 33.63165 -112.15242 11407 ft 388 kts 45°
2026-05-05 22:25 33.65034 -112.12835 11759 ft 399 kts 47°
2026-05-05 22:26 33.66925 -112.10352 12309 ft 406 kts 47°
2026-05-05 22:26 33.68852 -112.07838 12927 ft 411 kts 47°
2026-05-05 22:26 33.70812 -112.05315 13547 ft 416 kts 47°
2026-05-05 22:26 33.72809 -112.02766 14141 ft 420 kts 46°
2026-05-05 22:27 33.74813 -112.00212 14878 ft 420 kts 47°
2026-05-05 22:27 33.76737 -111.97546 15456 ft 424 kts 51°
2026-05-05 22:27 33.78541 -111.94718 16024 ft 429 kts 53°
2026-05-05 22:27 33.80321 -111.91809 16650 ft 433 kts 54°
2026-05-05 22:28 33.82112 -111.88873 17268 ft 437 kts 54°
2026-05-05 22:28 33.83925 -111.85932 17881 ft 440 kts 53°
2026-05-05 22:28 33.86750 -111.81414 18658 ft 447 kts 53°
2026-05-05 22:28 33.90580 -111.75343 19265 ft 466 kts 53°
2026-05-05 22:29 33.94539 -111.69069 20141 ft 475 kts 53°
2026-05-05 22:29 33.98587 -111.62636 20865 ft 488 kts 52°
2026-05-05 22:29 34.01639 -111.58640 21318 ft 493 kts 33°
2026-05-05 22:29 34.07505 -111.54291 22221 ft 499 kts 27°
2026-05-05 22:30 34.15463 -111.48362 23179 ft 514 kts 28°
2026-05-05 22:30 34.21545 -111.43686 23860 ft 523 kts 28°
2026-05-05 22:30 34.25707 -111.40465 24212 ft 530 kts 28°
2026-05-05 22:30 34.34016 -111.34036 25037 ft 538 kts 29°
2026-05-05 22:31 34.40290 -111.29176 25816 ft 540 kts 29°
2026-05-05 22:31 34.44607 -111.25832 26037 ft 548 kts 29°
2026-05-05 22:31 34.51077 -111.20810 26459 ft 556 kts 29°
2026-05-05 22:31 34.57633 -111.15707 26893 ft 564 kts 28°
2026-05-05 22:32 34.64153 -111.10346 27717 ft 564 kts 38°
2026-05-05 22:32 34.69722 -111.03745 28823 ft 561 kts 45°
2026-05-05 22:32 34.75165 -110.96771 29007 ft 575 kts 45°
2026-05-05 22:32 34.80790 -110.89742 29468 ft 582 kts 43°
2026-05-05 22:33 34.86519 -110.82764 30055 ft 586 kts 43°
2026-05-05 22:33 34.92326 -110.75729 30573 ft 590 kts 43°
2026-05-05 22:33 34.98033 -110.68776 31899 ft 572 kts 43°
2026-05-05 22:33 35.03647 -110.61910 32444 ft 572 kts 42°
2026-05-05 22:34 35.09278 -110.55010 32945 ft 575 kts 42°
2026-05-05 22:34 35.14931 -110.48069 33424 ft 578 kts 42°
2026-05-05 22:34 35.20615 -110.41073 33820 ft 582 kts 42°
2026-05-05 22:34 35.26290 -110.34071 34702 ft 572 kts 43°
2026-05-05 22:35 35.31820 -110.27230 35645 ft 560 kts 43°
2026-05-05 22:35 35.37281 -110.20468 36317 ft 555 kts 43°
2026-05-05 22:35 35.42675 -110.13776 36874 ft 552 kts 43°
2026-05-05 22:36 35.62528 -109.89033 36948 ft 567 kts 44°
2026-05-05 22:36 35.85048 -109.61696 36779 ft 568 kts 39°
2026-05-05 22:36 36.08999 -109.36725 36680 ft 564 kts 36°
2026-05-05 22:37 36.55075 -108.85414 36737 ft 547 kts 39°
2026-05-05 22:37 36.77454 -108.60204 36746 ft 536 kts 38°
2026-05-05 22:37 36.99612 -108.35409 36832 ft 534 kts 38°
2026-05-05 22:38 37.43545 -107.84829 36869 ft 538 kts 39°
2026-05-05 22:38 37.87490 -107.33421 36784 ft 533 kts 39°
2026-05-05 22:38 38.09021 -107.07869 36606 ft 524 kts 40°
2026-05-05 22:39 38.19433 -106.94671 36672 ft 522 kts 47°
2026-05-05 22:39 38.36674 -106.67532 36706 ft 525 kts 47°
2026-05-05 22:39 38.41419 -106.60345 35957 ft 533 kts 47°
2026-05-05 22:40 38.46163 -106.53109 34693 ft 532 kts 48°
2026-05-05 22:40 38.50891 -106.45839 33346 ft 532 kts 48°
2026-05-05 22:40 38.55577 -106.38607 32165 ft 520 kts 48°
2026-05-05 22:40 38.60117 -106.31588 30984 ft 502 kts 48°
2026-05-05 22:41 38.64473 -106.24846 30553 ft 483 kts 48°
2026-05-05 22:41 38.68689 -106.18362 29867 ft 471 kts 48°
2026-05-05 22:41 38.72882 -106.11971 28843 ft 463 kts 48°
2026-05-05 22:41 38.76974 -106.05714 27866 ft 453 kts 48°
2026-05-05 22:42 38.80981 -105.99563 26960 ft 445 kts 48°
2026-05-05 22:42 38.84914 -105.93513 25766 ft 439 kts 48°
2026-05-05 22:42 38.88789 -105.87542 24899 ft 433 kts 48°
2026-05-05 22:42 38.92604 -105.81609 24045 ft 428 kts 48°
2026-05-05 22:43 38.96361 -105.75740 23256 ft 424 kts 48°
2026-05-05 22:43 39.00095 -105.69906 22246 ft 420 kts 48°
2026-05-05 22:43 39.03789 -105.64141 21427 ft 415 kts 48°
2026-05-05 22:43 39.07449 -105.58460 20613 ft 410 kts 47°
2026-05-05 22:44 39.11070 -105.52827 19761 ft 406 kts 47°
2026-05-05 22:44 39.14615 -105.47294 19291 ft 393 kts 47°
2026-05-05 22:44 39.18033 -105.41894 18645 ft 387 kts 47°
2026-05-05 22:44 39.21407 -105.36522 17919 ft 382 kts 48°
2026-05-05 22:45 39.24727 -105.31236 17321 ft 374 kts 48°
2026-05-05 22:45 39.27884 -105.26114 17030 ft 358 kts 54°
2026-05-05 22:45 39.29174 -105.20106 16685 ft 350 kts 82°
2026-05-05 22:45 39.29510 -105.17002 16434 ft 350 kts 82°
2026-05-05 22:46 39.29849 -105.13889 16180 ft 350 kts 82°
2026-05-05 22:46 39.30196 -105.10810 15923 ft 351 kts 82°
2026-05-05 22:46 39.30562 -105.07659 15663 ft 351 kts 82°
2026-05-05 22:46 39.30928 -105.04540 15434 ft 350 kts 82°
2026-05-05 22:47 39.31288 -105.01464 15177 ft 346 kts 82°
2026-05-05 22:47 39.31714 -104.98420 14945 ft 341 kts 77°
2026-05-05 22:47 39.32277 -104.95467 14712 ft 337 kts 76°
2026-05-05 22:47 39.32851 -104.92547 14495 ft 334 kts 76°
2026-05-05 22:48 39.33406 -104.89650 14256 ft 331 kts 77°
2026-05-05 22:48 39.33971 -104.86782 14003 ft 329 kts 75°
2026-05-05 22:48 39.34670 -104.83973 13691 ft 328 kts 72°
2026-05-05 22:48 39.35390 -104.81213 13352 ft 320 kts 72°
2026-05-05 22:49 39.36086 -104.78525 13051 ft 309 kts 73°
2026-05-05 22:49 39.36757 -104.75932 12654 ft 299 kts 73°
2026-05-05 22:49 39.37514 -104.73482 12279 ft 290 kts 58°
2026-05-05 22:49 39.38885 -104.71671 11948 ft 278 kts 32°
2026-05-05 22:50 39.40569 -104.70500 11614 ft 272 kts 25°
2026-05-05 22:50 39.42265 -104.69470 11283 ft 268 kts 19°
2026-05-05 22:50 39.44076 -104.69135 10958 ft 261 kts 358°
2026-05-05 22:50 39.45887 -104.69156 10649 ft 260 kts 360°
2026-05-05 22:51 39.47693 -104.69151 10344 ft 258 kts
2026-05-05 22:51 39.49478 -104.69138 10172 ft 258 kts
2026-05-05 22:51 39.51289 -104.69121 10146 ft 260 kts
2026-05-05 22:51 39.53078 -104.69102 10126 ft 256 kts
2026-05-05 22:52 39.54853 -104.69081 10136 ft 255 kts
2026-05-05 22:52 39.56633 -104.69059 10132 ft 257 kts
2026-05-05 22:52 39.58439 -104.69038 10134 ft 261 kts
2026-05-05 22:52 39.60255 -104.69018 9919 ft 263 kts
2026-05-05 22:53 39.62075 -104.68997 9689 ft 259 kts
2026-05-05 22:53 39.63838 -104.68977 9436 ft 255 kts
2026-05-05 22:53 39.65602 -104.68957 9198 ft 250 kts
2026-05-05 22:53 39.67327 -104.68937 8913 ft 247 kts
2026-05-05 22:54 39.69014 -104.68918 8659 ft 238 kts
2026-05-05 22:54 39.70623 -104.68900 8487 ft 227 kts
2026-05-05 22:54 39.72178 -104.68883 8217 ft 220 kts
2026-05-05 22:54 39.73682 -104.68864 7900 ft 210 kts
2026-05-05 22:55 39.75100 -104.68844 7625 ft 197 kts
2026-05-05 22:55 39.76419 -104.68830 7413 ft 180 kts
2026-05-05 22:55 39.77617 -104.68820 7178 ft 165 kts
2026-05-05 22:55 39.78751 -104.68805 6979 ft 163 kts
2026-05-05 22:56 39.79882 -104.68790 6749 ft 160 kts
2026-05-05 22:56 39.80978 -104.68779 6551 ft 155 kts
2026-05-05 22:56 39.82055 -104.68767 6324 ft 153 kts
2026-05-05 22:56 39.83115 -104.68753 6066 ft 151 kts
2026-05-05 22:57 39.84163 -104.68742 5853 ft 152 kts
2026-05-05 22:57 39.85199 -104.68731 5636 ft 147 kts
2026-05-05 22:57 39.86212 -104.68719 5437 ft 146 kts
2026-05-05 22:57 39.87196 -104.68707 5358 ft 132 kts
2026-05-05 22:58 39.87932 -104.68701 5359 ft 63 kts
2026-05-05 22:58 39.88273 -104.68694 5362 ft 36 kts
2026-05-05 22:58 39.88490 -104.68641 5361 ft 28 kts 20°
2026-05-05 22:58 39.88605 -104.68520 5362 ft 13 kts 102°
2026-05-05 22:59 39.88534 -104.68481 5362 ft 11 kts 179°
2026-05-05 22:59 39.88451 -104.68481 5361 ft 13 kts 181°
2026-05-05 22:59 39.88354 -104.68483 5360 ft 15 kts 181°
2026-05-05 22:59 39.88244 -104.68485 5359 ft 17 kts 181°
2026-05-05 23:00 39.87990 -104.68487 5357 ft 19 kts 181°
2026-05-05 23:00 39.87852 -104.68490 5356 ft 20 kts 180°
2026-05-05 23:00 39.87710 -104.68492 5355 ft 20 kts 180°
2026-05-05 23:01 39.87572 -104.68493 5356 ft 20 kts 180°
2026-05-05 23:01 39.87439 -104.68493 5356 ft 19 kts 180°
2026-05-05 23:01 39.87308 -104.68497 5356 ft 19 kts 180°
2026-05-05 23:01 39.87180 -104.68497 5358 ft 18 kts 180°
2026-05-05 23:02 39.87050 -104.68498 5358 ft 20 kts 180°
2026-05-05 23:02 39.86897 -104.68499 5360 ft 23 kts 180°
2026-05-05 23:02 39.86730 -104.68502 5361 ft 23 kts 181°
2026-05-05 23:02 39.86564 -104.68504 5362 ft 26 kts 180°
2026-05-05 23:03 39.86370 -104.68508 5363 ft 30 kts 180°
2026-05-05 23:03 39.86158 -104.68509 5364 ft 30 kts 180°
2026-05-05 23:03 39.85957 -104.68512 5367 ft 28 kts 181°
2026-05-05 23:03 39.85769 -104.68514 5368 ft 26 kts 180°
2026-05-05 23:04 39.85608 -104.68488 5371 ft 25 kts 139°
2026-05-05 23:04 39.85576 -104.68299 5379 ft 23 kts 92°
2026-05-05 23:04 39.85532 -104.68105 5379 ft 21 kts 100°
2026-05-05 23:04 39.85477 -104.68042 5383 ft 5 kts 181°
2026-05-05 23:05 39.85464 -104.68043 5384 ft 0 kts 180°